Date,TemperatureHighF,TemperatureAvgF,TemperatureLowF,DewpointHighF,DewpointAvgF,DewpointLowF,HumidityHigh,HumidityAvg,HumidityLow,PressureMaxIn,PressureMinIn,WindSpeedMaxMPH,WindSpeedAvgMPH,GustSpeedMaxMPH,PrecipitationSumIn
2013-5-1,79.9,69.6,63.1,71.1,67.4,62.2,98,93,74,29.83,29.74,5,2,27,2.36
2013-5-2,72.8,67.2,63.9,66.4,64.6,63.0,98,92,78,29.88,29.77,6,2,16,0.24
2013-5-3,75.6,64.5,47.7,65.7,61.0,46.3,97,89,71,29.89,29.74,4,2,16,0.44
2013-5-4,72.3,57.6,42.8,50.7,41.0,33.0,95,61,26,29.91,29.78,4,1,21,0.00
2013-5-5,67.1,62.9,51.3,56.6,46.1,39.9,76,56,38,29.93,29.75,8,4,23,0.00
2013-5-6,70.8,61.0,46.7,54.3,48.6,44.0,95,66,46,29.94,29.82,7,3,24,0.00
2013-5-7,75.1,65.5,53.1,64.1,57.4,51.7,96,77,52,29.95,29.88,7,2,17,0.00
2013-5-8,78.6,70.1,57.5,65.8,61.4,56.7,97,76,50,30.02,29.92,8,3,17,0.01
2013-5-9,79.4,72.6,63.5,67.6,64.6,61.7,95,77,58,30.06,29.95,6,2,15,0.00
2013-5-10,73.0,69.9,64.8,68.8,66.3,62.9,96,89,74,30.03,29.77,10,3,24,0.69
2013-5-11,76.0,68.2,62.9,67.5,65.1,62.3,98,90,71,29.97,29.85,4,1,12,0.34
2013-5-12,80.7,71.0,61.8,66.9,59.2,54.2,97,69,45,30.03,29.92,5,1,15,0.01
2013-5-13,78.6,65.7,53.2,56.4,49.9,38.2,89,61,26,30.20,30.04,6,2,14,0.00
2013-5-14,80.7,68.8,54.4,61.6,56.2,46.6,96,68,32,30.19,30.08,7,2,15,0.00
2013-5-15,82.6,72.9,59.8,64.3,58.4,48.9,94,63,31,30.12,29.95,5,2,18,0.00
2013-5-16,80.5,74.8,70.4,69.9,67.7,63.3,89,79,67,29.96,29.87,8,4,20,0.00
2013-5-17,84.0,76.8,72.1,72.6,71.2,69.1,94,84,66,29.97,29.88,6,4,17,0.00
2013-5-18,83.8,78.3,75.1,73.1,72.2,69.9,93,82,63,30.00,29.91,7,4,16,0.00
2013-5-19,81.8,77.7,74.6,74.1,73.0,71.9,92,86,77,29.95,29.89,5,3,15,0.00
2013-5-20,86.1,78.9,73.7,74.0,72.3,71.3,93,81,62,29.95,29.87,7,4,16,0.00
2013-5-21,83.8,78.8,74.2,72.8,71.5,69.9,91,79,64,29.90,29.78,8,4,20,0.00
2013-5-22,83.6,74.8,67.8,71.9,69.3,65.7,95,84,58,29.97,29.81,3,1,24,0.20
2013-5-23,70.3,68.4,66.9,68.5,67.2,66.0,97,96,94,29.92,29.86,0,0,0,0.01
2013-5-24,91.4,80.6,71.6,74.0,67.4,59.2,96,67,42,30.06,29.92,6,2,15,0.00
2013-5-25,85.9,74.4,62.4,64.5,57.1,50.9,88,57,34,30.14,30.04,4,2,14,0.00
2013-5-26,85.7,75.1,62.6,70.7,63.2,56.5,96,70,38,30.10,30.03,6,2,16,0.00
2013-5-27,84.1,79.2,74.6,71.2,66.2,60.2,83,66,45,30.06,29.97,8,3,22,0.00
2013-5-28,84.0,75.7,63.5,72.4,67.1,61.7,94,76,55,30.00,29.93,5,2,20,0.00
2013-5-29,84.1,79.3,76.0,74.0,71.9,69.7,88,78,70,29.95,29.89,7,4,26,0.02
2013-5-30,83.0,79.3,76.7,73.3,72.0,71.1,84,79,71,29.96,29.89,7,4,29,0.00
2013-5-31,83.2,79.3,77.0,75.4,73.4,72.1,91,82,74,29.95,29.88,10,5,26,0.04